{"data":{"norad_id":58689,"epoch":"2026-05-24T23:44:57.857856Z","epoch_age_seconds":79424,"freshness":"FRESH","line1":"1 58689U 23211Y   26144.98955854  .00007918  00000+0  29671-3 0  9997","line2":"2 58689  43.0026  14.3808 0001141 263.0228  97.0493 15.27607496134138","mean_motion":15.27607496,"eccentricity":0.0001141,"inclination_deg":43.0026,"raan_deg":14.3808,"arg_perigee_deg":263.0228,"mean_anomaly_deg":97.0493,"bstar":0.00029671,"rev_number":13413,"period_min":94.265051969868,"perigee_km":482.18391241946,"apogee_km":483.74961629849,"semimajor_km":6861.103764359,"source":"CELESTRAK","updated_at":"2026-05-25T13:38:18.714262Z"}}